Regional Weather Roundup
Issued by NWS

Home | Current Version | Previous Version | Graphics & Text | Print | Product List | Glossary On
Versions: 1 2 3 4 5 6 7 8 9 10 11 12 13 14 15 16 17 18 19 20 21 22 23 24 25 26 27 28 29 30 31 32 33 34 35 36 37 38 39 40 41 42 43 44 45 46 47 48 49 50
000
ASUS43 KIND 071159
RWRIN

WEATHER ROUNDUP FOR INDIANA
NATIONAL WEATHER SERVICE INDIANAPOLIS IN
800 AM EDT TUE JUL 07 2015

NOTE: "FAIR" INDICATES FEW OR NO CLOUDS BELOW 12,000 FEET WITH NO
SIGNIFICANT WEATHER AND/OR OBSTRUCTIONS TO VISIBILITY.

* - STATION DOES NOT REPORT WEATHER SUCH AS PRECIPITATION OR FOG.

+ - STATION NOT QUALITY CONTROLLED BY THE NATIONAL WEATHER SERVICE.
    USE DATA WITH CAUTION...ESPECIALLY DEWPOINT AND RELATIVE
    HUMIDITY OBSERVATIONS.

INZ001>003-010>013-019-020-071300-
NORTHWEST INDIANA

CITY           SKY/WX    TMP DP  RH WIND       PRES   REMARKS
GARY /AIRPORT/ LGT RAIN N/A N/A N/A N17G33    29.93R
RENSSELAER +   RAIN      72  72 100 SW3       29.89S

$$

LMZ046-743>745-071300-
SOUTHERN LAKE MICHIGAN

STATION/POSITION TIME  TEMP    WIND        PRES    WAVE
                       AIR SEA DIR/SP/G            HT
                 (UTC) (F)     (DEG/KT/KT) (MB)    (FT)
BURNS HARBOR     1100   61     360/ 17/ 23 1012.9R
MICHIGAN CITY    1100   63     330/ 26/ 30   N/A
5NW MICH CITY    1100   61 67   10/ 19/ 25   N/A     2

$$

INZ004-005-014>016-021>024-071300-
NORTH CENTRAL INDIANA

CITY           SKY/WX    TMP DP  RH WIND       PRES   REMARKS
ELKHART        LGT RAIN  72  72 100 SW3       29.88R
GOSHEN         HVY RAIN  72  71  97 SW15      29.89R VSB 3/4
6HR MIN TEMP:  72; 6HR MAX TEMP:  77; 6HR PCP:  0.34;

SOUTH BEND     LGT RAIN  72  71  97 SW8       29.88R
6HR MIN TEMP:  72; 6HR MAX TEMP:  79; 6HR PCP:  0.10;


$$

INZ006>009-017-018-025>027-071300-
NORTHEAST INDIANA

CITY           SKY/WX    TMP DP  RH WIND       PRES   REMARKS
ANGOLA *+        N/A     75  73  94 W13       29.89R
FORT WAYNE     CLOUDY    76  72  87 SW10      29.91R
6HR MIN TEMP:  74; 6HR MAX TEMP:  76;


$$

INZ028-029-035-036-043>045-051>053-071300-
WEST CENTRAL INDIANA

CITY           SKY/WX    TMP DP  RH WIND       PRES   REMARKS
CRAWFORDSVL +  CLOUDY    74  70  89 SW7       29.91S
6HR MIN TEMP:  73; 6HR MAX TEMP:  74;

GREENCASTLE +  CLOUDY    73  68  83 S5        29.93S
LAFAYETTE      LGT RAIN  71  69  93 W9        29.89R FOG
6HR MIN TEMP:  71; 6HR MAX TEMP:  76; 6HR PCP:  0.06;

TERRE HAUTE    CLOUDY    76  73  91 S7        29.91S
6HR MIN TEMP:  76; 6HR MAX TEMP:  76;


$$

INZ030>032-037>040-046>048-054>057-064-065-071300-
CENTRAL INDIANA

CITY           SKY/WX    TMP DP  RH WIND       PRES   REMARKS
COLUMBUS       CLOUDY    75  72  88 S9        29.96S
GREENWOOD *+   CLOUDY    77  70  78 S9        29.95S
INDIANAPOLIS   CLOUDY    77  71  82 SW12      29.92R
6HR MIN TEMP:  75; 6HR MAX TEMP:  77;

-EAGLE CREEK   CLOUDY    77  72  84 S8        29.92S
6HR MIN TEMP:  76; 6HR MAX TEMP:  77;

KOKOMO *+      CLOUDY    75  70  83 SW14      29.90S
6HR MIN TEMP:  75; 6HR MAX TEMP:  77;

MT COMFORT *+  CLOUDY    75 N/A N/A S6        29.94S
SHELBYVILLE    CLOUDY    76  72  87 S12       29.94S
6HR MIN TEMP:  75; 6HR MAX TEMP:  76;


$$

INZ033-034-041-042-049-050-058-059-071300-
EAST CENTRAL INDIANA

CITY           SKY/WX    TMP DP  RH WIND       PRES   REMARKS
MUNCIE         PTSUNNY   76  72  87 SW9G18    29.93R
6HR MIN TEMP:  75; 6HR MAX TEMP:  77;


$$

INZ060-061-067>069-081>083-085>088-071300-
SOUTHWEST INDIANA

CITY           SKY/WX    TMP DP  RH WIND       PRES   REMARKS
EVANSVILLE     CLOUDY    74  70  87 S14       29.96S
6HR MIN TEMP:  74; 6HR MAX TEMP:  78; 6HR PCP:  0.09;

HUNTINGBURG *+ CLOUDY    73  70  88 SW21G26   29.97R
6HR MIN TEMP:  73; 6HR MAX TEMP:  75; 6HR PCP:  0.73;


$$

INZ062-063-066-070>080-084-089>092-071300-
SOUTH CENTRAL AND SOUTHEAST INDIANA

CITY           SKY/WX    TMP DP  RH WIND       PRES   REMARKS
BLOOMINGTON    CLOUDY    76  72  87 SW7       29.95R
6HR MIN TEMP:  76; 6HR MAX TEMP:  77;

MADISON *+     CLOUDY    73  70  88 S7        30.01S
SEYMOUR +      CLOUDY    77  73  88 S8        29.96S

$$



USA.gov is the U.S. government's official web portal to all federal, state and local government web resources and services.